Location: May Morn
(41.0333°S, 175.2000°E)
Time: 14:08:12
(UTC+00:00)

Daily predictions for brighter satellites

Satellite Brightness Start Highest point End
(mag) Time Altitude Azimuth Time Altitude Azimuth Time Altitude Azimuth
CZ-4C R/B 4.5 15:30:09 30° ESE 15:30:09 30° ESE 15:33:46 10° SE
Centaur D-1A AC-31 4.2 16:12:28 15° NNE 16:12:28 15° NNE 16:14:57 10° NE
CENTAUR R/B 4.2 16:26:19 10° N 16:34:08 39° ENE 16:40:51 10° SE
BREEZE-M DEB (TANK) 3.8 16:39:46 70° ESE 16:39:46 70° ESE 16:52:16 10° ENE
CZ-3 Stage 3 3.9 16:57:41 15° NE 16:57:41 15° NE 16:59:39 10° ENE
Cosmos 2219 Rocket 3.5 17:07:22 27° N 17:07:22 27° N 17:09:55 10° N
Cosmos 2237 Rocket 3.8 17:04:15 15° S 17:08:10 30° SE 17:13:10 10° ENE
CZ-4C R/B 3.2 17:15:17 46° SW 17:15:17 46° SW 17:22:06 10° SSE
SMAP 4.2 17:12:42 10° NE 17:17:07 42° ESE 17:21:02 13° S
SL-19 R/B 4.1 17:13:22 10° N 17:19:07 70° WNW 17:19:09 70° W
COSMOS 2455 3.2 17:20:35 45° SSW 17:20:35 45° SSW 17:25:23 10° SSE
PSLV R/B 3.9 17:16:25 10° NNE 17:20:32 60° ESE 17:20:58 56° SE
Cosmos 2297 Rocket 2.8 17:17:25 10° N 17:22:57 57° ENE 17:28:33 10° SSE
Meteor 1-22 Rocket 4.5 17:18:49 14° S 17:23:29 63° E 17:28:47 10° NNE
COSMOS 2428 2.6 17:23:41 54° SSW 17:25:04 84° WNW 17:30:46 10° NNE
Cosmos 1300 4.2 17:23:53 24° SE 17:25:17 33° ESE 17:28:33 10° NE
Cosmos 371 Rocket 4.0 17:23:05 10° N 17:27:46 53° ENE 17:32:29 10° SSE
CZ-3 R/B 3.7 17:21:56 27° WNW 17:31:24 42° NNW 17:38:45 10° NE
BlueWalker 3 2.5 17:36:38 48° SSE 17:36:49 49° SE 17:40:34 10° ENE
Cosmos 2208 Rocket 4.3 17:35:09 19° SSW 17:39:10 70° ESE 17:44:32 10° NNE
Meteor 2-10 Rocket 3.9 17:37:12 10° S 17:43:06 78° E 17:48:56 10° NNE
ISS -0.7 17:47:12 10° NNE 17:49:16 15° NE 17:51:20 10° E
Celestis-02/Orion 38 4.5 17:44:43 10° SSE 17:49:53 69° WSW 17:55:06 10° NW
Cosmos 1733 Rocket 4.1 17:45:46 10° S 17:50:02 47° ESE 17:54:15 10° NNE
Cosmos 1707 Rocket 4.1 17:46:26 10° N 17:50:48 61° E 17:55:15 10° SSE
Meteor 1-12 Rocket 4.4 17:46:39 10° S 17:52:34 84° E 17:58:30 10° N
SL-14 R/B 3.1 17:49:29 10° N 17:53:23 80° W 17:57:20 10° S
CORIOLIS 4.1 17:50:25 10° NNE 17:55:53 81° WNW 18:01:26 10° SSW
IRIDIUM 104 4.3 17:53:15 10° S 17:58:36 87° W 18:03:51 10° N
Cosmos 2322 4.3 17:57:45 33° W 17:58:46 36° WNW 18:03:55 10° NNW
Cosmos 1346 Rocket 2.7 17:59:44 37° SW 18:01:02 59° W 18:04:51 10° N
Meteor 1-21 4.3 17:56:16 10° N 18:01:53 79° E 18:07:38 10° SSE
Cosmos 2228 Rocket 3.0 17:57:34 10° N 18:02:02 89° W 18:06:36 10° S
USA 306 4.1 18:00:19 10° NNW 18:02:57 30° NE 18:06:02 10° ESE
COSMO-SKYMED 1 3.9 17:59:48 10° SSE 18:04:02 43° E 18:08:12 10° N
Cosmos 2266 Rocket 3.9 17:59:22 10° N 18:05:27 86° W 18:11:42 10° S
Cosmos 1570 Rocket 4.2 18:04:00 24° SW 18:06:57 50° WNW 18:12:01 10° N
IRIDIUM 114 4.2 18:02:26 10° S 18:07:44 72° W 18:12:57 10° N
Cosmos 1315 Rocket 2.9 18:04:32 10° N 18:08:23 76° E 18:12:22 10° SSE
Cosmos 1503 Rocket 4.2 18:04:14 10° NNW 18:09:30 79° ENE 18:14:54 10° SSE
Meteor 1-23 Rocket 4.2 18:04:16 10° NNW 18:09:46 57° WSW 18:15:22 10° S
Meteor 1-15 Rocket 4.4 18:05:33 10° SSW 18:11:07 50° W 18:16:33 10° NNW
NOSS 0 Rocket 4.0 18:07:22 18° SW 18:11:54 55° WNW 18:17:52 10° N
AQUARIUS 4.1 18:08:06 10° N 18:12:34 72° W 18:17:06 10° SSW
IGS 5A 4.4 18:08:44 10° NNE 18:12:40 47° ESE 18:16:39 10° S
Helios 1B rocket 3.3 18:12:18 10° NNE 18:16:06 48° ESE 18:19:56 10° S
USA 276 3.6 18:17:31 16° S 18:17:31 16° S 18:18:28 10° SSE
IRIDIUM 103 4.4 18:11:39 10° S 18:16:51 58° W 18:21:59 10° NNW
ADEOS Rocket 3.0 18:15:29 10° NNE 18:21:07 81° ESE 18:27:20 10° SSW
CZ-4B R/B 4.0 18:19:23 10° NNE 18:23:38 86° ESE 18:27:49 10° SSW
CENTAUR R/B 3.1 18:16:32 10° NW 18:24:45 54° SW 18:31:33 10° SSE
Cosmos 1818 3.7 18:20:51 11° SSW 18:26:07 74° SE 18:31:30 10° NE
Cosmos 1953 3.3 18:24:07 10° S 18:27:58 47° E 18:31:44 10° NNE
Cosmos 1758 3.8 18:25:49 15° SSW 18:28:36 35° W 18:32:09 10° NNW
Cosmos 1486 Rocket 4.4 18:26:07 10° NW 18:31:09 42° WSW 18:36:12 10° S
Cosmos 332 Rocket 3.9 18:27:30 10° NNW 18:32:17 80° ENE 18:37:10 10° SSE
Cosmos 1461 4.2 18:32:35 19° WSW 18:33:47 21° SW 18:37:08 10° S
Intercosmos 25 Rocket 4.0 18:30:15 10° SSW 18:34:25 75° W 18:41:01 10° N
Cosmos 304 Rocket 4.2 18:30:56 10° NW 18:35:27 40° WSW 18:40:01 10° S
CZ-2C R/B 2.8 18:38:50 10° N 18:42:23 49° W 18:45:57 10° SSW
Cosmos 883 Rocket 4.5 18:36:26 10° SSW 18:42:37 67° W 18:48:48 10° N
Cosmos 2263 Rocket 3.0 18:42:47 10° N 18:48:21 57° ENE 18:53:59 10° SSE
S3M 4.4 18:42:53 10° SSW 18:48:54 44° W 18:54:55 10° NNW
Cosmos 2227 Rocket 2.3 18:45:26 10° NW 18:50:59 54° WSW 18:56:35 10° SSE
SKYMED 2 3.7 18:47:41 10° S 18:52:01 54° WSW 18:56:17 10° NNW
Cosmos 2237 Rocket 2.7 18:46:58 10° SW 18:52:18 41° WNW 18:57:37 10° N
NOSS 3-2 (A) 4.3 18:45:43 10° NW 18:54:31 55° SW 19:02:14 10° SSE
SMAP 4.4 18:51:13 10° NW 18:54:37 20° W 18:58:03 10° SW
FALCON 9 R/B 4.4 18:38:08 10° WNW 18:58:18 36° NNW 19:04:03 10° NE
Cosmos 1655 Rocket 4.3 18:53:13 10° NNW 18:59:16 49° WSW 19:05:28 10° S
Meteor 1-31 Rocket 3.5 18:56:03 10° NNW 18:59:25 31° W 19:02:49 10° SSW
Cosmos 1300 4.4 18:57:53 10° WSW 18:59:34 13° W 19:01:16 10° WNW
Okean 3 4.2 18:56:47 10° NW 19:00:23 29° WSW 19:04:04 10° SSW
Cosmos 1900 4.5 18:59:31 10° NW 19:04:17 52° SW 19:09:09 10° SSE
Resurs 01 Rocket 4.3 19:01:50 10° ENE 19:04:46 17° ESE 19:07:43 10° SSE
CZ-4C R/B 4.3 19:01:05 10° WSW 19:05:23 15° SSW 19:09:15 10° S
USA 307 1.1 19:06:41 11° ESE 19:06:41 11° ESE 19:06:43 10° ESE
Cosmos 2315 Rocket 4.3 19:00:30 10° SSW 19:06:30 47° W 19:12:29 10° NNW
Aureole 3 3.9 19:04:36 10° NW 19:07:18 23° WSW 19:09:51 10° SSW
Cosmos 2297 Rocket 3.3 19:02:56 10° WNW 19:07:22 23° SW 19:11:50 10° S
Cosmos 990 Rocket 4.1 19:02:27 10° NNW 19:07:43 86° ENE 19:13:01 10° SSE
SL-16 R/B 2.4 19:02:17 10° SSW 19:08:03 80° ESE 19:13:44 10° NNE
CZ-4 R/B 3.3 19:06:23 10° NE 19:09:39 28° ESE 19:13:01 10° S
Cosmos 2082 4.0 19:04:29 10° NNW 19:10:13 79° ENE 19:16:01 10° SSE
Cosmos 1354 Rocket 4.5 19:07:04 10° NW 19:12:01 40° WSW 19:17:03 10° S
